TimeMDT,TemperatureF,Dew PointF,Humidity,Sea Level PressureIn,VisibilityMPH,Wind Direction,Wind SpeedMPH,Gust SpeedMPH,PrecipitationIn,Events,Conditions,WindDirDegrees,DateUTC
12:53 AM,46.0,28.9,51,29.89,10.0,Calm,Calm,-,N/A,,Clear,0,2011-10-20 06:53:00
1:53 AM,45.0,24.1,44,29.90,10.0,WSW,5.8,-,N/A,,Clear,240,2011-10-20 07:53:00
2:53 AM,44.1,28.0,53,29.91,10.0,Calm,Calm,-,N/A,,Clear,0,2011-10-20 08:53:00
3:53 AM,41.0,25.0,53,29.94,10.0,Calm,Calm,-,N/A,,Clear,0,2011-10-20 09:53:00
4:53 AM,37.0,26.1,65,29.97,10.0,West,5.8,-,N/A,,Clear,260,2011-10-20 10:53:00
5:53 AM,43.0,23.0,45,29.97,10.0,Calm,Calm,-,N/A,,Clear,0,2011-10-20 11:53:00
6:53 AM,43.0,23.0,45,29.99,10.0,Calm,Calm,-,N/A,,Clear,0,2011-10-20 12:53:00
7:53 AM,39.0,24.1,55,30.03,10.0,Calm,Calm,-,N/A,,Clear,0,2011-10-20 13:53:00
8:53 AM,43.0,26.1,51,30.04,10.0,NNW,3.5,-,N/A,,Clear,330,2011-10-20 14:53:00
9:53 AM,48.9,28.9,46,30.03,10.0,ESE,3.5,-,N/A,,Clear,120,2011-10-20 15:53:00
10:53 AM,55.9,27.0,33,30.00,10.0,ESE,6.9,-,N/A,,Clear,120,2011-10-20 16:53:00
11:53 AM,60.1,26.1,27,29.99,10.0,South,5.8,-,N/A,,Clear,170,2011-10-20 17:53:00
12:53 PM,62.1,24.1,23,29.96,10.0,Variable,3.5,-,0.00,,Clear,0,2011-10-20 18:53:00
1:53 PM,64.0,25.0,23,29.94,10.0,Calm,Calm,-,N/A,,Clear,0,2011-10-20 19:53:00
2:53 PM,64.0,25.0,23,29.92,10.0,Calm,Calm,-,N/A,,Clear,0,2011-10-20 20:53:00
3:53 PM,64.9,26.1,23,29.92,10.0,Variable,4.6,-,N/A,,Clear,0,2011-10-20 21:53:00
4:53 PM,63.0,27.0,26,29.96,10.0,Calm,Calm,-,N/A,,Clear,0,2011-10-20 22:53:00
5:53 PM,57.9,28.0,32,29.96,10.0,SSW,6.9,-,N/A,,Clear,200,2011-10-20 23:53:00
6:53 PM,52.0,30.9,45,29.99,10.0,WSW,10.4,-,N/A,,Clear,250,2011-10-21 00:53:00
7:53 PM,51.1,28.9,43,30.04,10.0,WNW,5.8,-,N/A,,Clear,300,2011-10-21 01:53:00
8:53 PM,51.1,25.0,36,30.03,10.0,WSW,11.5,-,N/A,,Clear,240,2011-10-21 02:53:00
9:53 PM,48.9,25.0,39,30.04,10.0,West,11.5,-,N/A,,Clear,260,2011-10-21 03:53:00
10:53 PM,48.9,24.1,38,30.02,10.0,SW,4.6,-,N/A,,Clear,220,2011-10-21 04:53:00
11:53 PM,45.0,26.1,48,30.02,10.0,Calm,Calm,-,N/A,,Clear,0,2011-10-21 05:53:00